Location: Angwan Shehu
(11.2514°N, 7.4613°E)
Time: 21:19:48
(UTC+00:00)

Transit 2A - All Passes

Search period start: 17 April 2021 00:00
Search period end: 27 April 2021 00:00
Orbit: 602 x 957 km, 66.7° (Epoch: 17 April)

Date Brightness Start Highest point End Pass type
(mag) Time Alt. Az. Time Alt. Az. Time Alt. Az.
17 Apr - 05:57:50 10° SSW 06:03:19 79° ESE 06:08:14 10° NNE daylight
17 Apr - 16:42:52 10° N 16:47:10 33° ENE 16:51:51 10° SE daylight
17 Apr - 18:27:28 10° WNW 18:30:07 14° WSW 18:32:53 10° SW visible
18 Apr - 05:23:57 10° S 05:29:10 46° ESE 05:33:54 10° NE daylight
18 Apr - 07:10:53 10° W 07:12:05 11° WNW 07:13:16 10° NW daylight
18 Apr - 16:09:33 10° NNE 16:13:03 20° ENE 16:16:44 10° ESE daylight
18 Apr - 17:51:59 10° NW 17:55:57 24° WSW 18:00:13 10° SSW daylight
19 Apr - 04:50:27 10° SSE 04:55:00 27° ESE 04:59:12 10° NE visible
19 Apr - 06:34:16 10° WSW 06:37:55 19° WNW 06:41:21 10° NNW daylight
19 Apr - 15:37:20 10° NE 15:38:52 11° ENE 15:40:27 10° E daylight
19 Apr - 17:17:13 10° NW 17:21:46 41° WSW 17:26:48 10° S daylight
20 Apr - 04:17:35 10° SSE 04:20:50 16° ESE 04:23:54 10° ENE visible
20 Apr - 05:59:05 10° SW 06:03:46 31° WNW 06:08:06 10° N daylight
20 Apr - 16:42:49 10° NNW 16:47:37 73° WSW 16:52:58 10° SSE daylight
21 Apr - 05:24:24 10° SSW 05:29:39 54° WNW 05:34:24 10° N daylight
21 Apr - 16:08:43 10° NNW 16:13:29 66° ENE 16:18:47 10° SSE daylight
22 Apr - 04:50:07 10° SSW 04:55:31 87° ESE 05:00:24 10° NNE visible
22 Apr - 15:34:55 10° N 15:39:22 37° ENE 15:44:16 10° SE daylight
22 Apr - 17:20:01 10° W 17:22:20 13° WSW 17:24:45 10° SW daylight
23 Apr - 04:16:09 10° S 04:21:24 50° ESE 04:26:06 10° NE visible
23 Apr - 15:01:29 10° NNE 15:05:15 22° ENE 15:09:16 10° ESE daylight
23 Apr - 16:44:19 10° WNW 16:48:10 22° WSW 16:52:18 10° SSW daylight
24 Apr - 03:42:35 10° S 03:47:13 30° ESE 03:51:29 10° NE visible
24 Apr - 05:26:52 10° WSW 05:30:07 17° WNW 05:33:13 10° NNW daylight
24 Apr - 14:28:50 10° NE 14:31:05 13° ENE 14:33:26 10° E daylight
24 Apr - 16:09:27 10° NW 16:13:59 38° WSW 16:18:58 10° S daylight
25 Apr - 03:09:34 10° SSE 03:13:03 18° ESE 03:16:20 10° ENE visible
25 Apr - 04:51:31 10° SW 04:55:59 28° WNW 05:00:07 10° N visible
25 Apr - 15:35:00 10° NNW 15:39:50 65° WSW 15:45:13 10° SSE daylight
26 Apr - 04:16:45 10° SW 04:21:51 48° WNW 04:26:29 10° N visible
26 Apr - 15:00:50 10° NNW 15:05:42 73° ENE 15:11:06 10° SSE daylight
